This is the latest recevied weather packets stored in our database for station/object W7TTE. If no packets are shown the sender has not sent any weather packets the latest 10 day(s).
| Time | Temp. | Humidity | Pressure | Rain* | Wind** | Luminosity | Snow |
|---|---|---|---|---|---|---|---|
| 1778027884 | 24.44° C | 25% | 1012 hPa | 0 mm | - | 53 W/m² | - |
| 1778027581 | 24.44° C | 26% | 1012.1 hPa | 0 mm | - | 138 W/m² | - |
| 1778027277 | 24.44° C | 25% | 1012.2 hPa | 0 mm | - | 155 W/m² | - |
| 1778026973 | 24.44° C | 26% | 1012.1 hPa | 0 mm | - | 88 W/m² | - |
| 1778026669 | 25° C | 26% | 1012 hPa | 0 mm | - | 65 W/m² | - |
| 1778026367 | 25° C | 26% | 1012 hPa | 0 mm | - | 218 W/m² | - |
| 1778026063 | 25° C | 26% | 1011.8 hPa | 0 mm | - | 229 W/m² | - |
| 1778025761 | 24.44° C | 27% | 1012 hPa | 0 mm | - | 244 W/m² | - |
| 1778025458 | 24.44° C | 26% | 1012 hPa | 0 mm | - | 70 W/m² | - |
| 1778025156 | 25.56° C | 26% | 1011.9 hPa | 0 mm | - | 279 W/m² | - |
| 1778024852 | 25.56° C | 27% | 1011.9 hPa | 0 mm | - | 151 W/m² | - |
| 1778024550 | 25.56° C | 27% | 1011.7 hPa | 0 mm | - | 308 W/m² | - |
| 1778024246 | 25.56° C | 27% | 1011.9 hPa | 0 mm | - | 321 W/m² | - |
| 1778023944 | 25.56° C | 26% | 1011.9 hPa | 0 mm | - | 335 W/m² | - |
| 1778023641 | 25.56° C | 26% | 1012 hPa | 0 mm | - | 346 W/m² | - |
| 1778023338 | 26.11° C | 26% | 1011.7 hPa | 0 mm | - | 368 W/m² | - |
| 1778023035 | 25° C | 27% | 1011.8 hPa | 0 mm | - | 397 W/m² | - |
| 1778022734 | 25° C | 27% | 1012 hPa | 0 mm | - | 242 W/m² | - |
| 1778022432 | 25.56° C | 26% | 1011.9 hPa | 0 mm | - | 355 W/m² | - |
| 1778022128 | 25.56° C | 26% | 1011.8 hPa | 0 mm | - | 448 W/m² | - |
| 1778021824 | 26.11° C | 27% | 1011.9 hPa | 0 mm | - | 462 W/m² | - |
| 1778021521 | 25.56° C | 26% | 1011.9 hPa | 0 mm | - | 486 W/m² | - |
| 1778021217 | 26.11° C | 26% | 1012.2 hPa | 0 mm | - | 523 W/m² | - |
| 1778020915 | 26.11° C | 27% | 1012 hPa | 0 mm | - | 522 W/m² | - |
| 1778020612 | 26.11° C | 28% | 1012.4 hPa | 0 mm | - | 124 W/m² | - |
* Rain latest hour (hover to see other rain measurements)
** Current wind speed in m/s (hover to see current wind gust speed)